Location: El Carrer d�Abaix
(41.5797°N, 2.1791°E)
Time: 20:53:26
(UTC+00:00)

STARLINK-1371 - Pass Details

Date: 06 June 2020
Orbit: 549 x 551 km, 53.0° (Epoch: 13 July)

Event Time Altitude Azimuth Distance (km) Brightness Sun altitude
Rises 20:55:45 0° 212° (SSW) 2,698 7.0 -14.0°
Reaches altitude 10° 20:58:03 10° 205° (SSW) 1,809 6.0 -14.3°
Maximum altitude 21:01:55 41° 135° (SE) 801 3.9 -14.8°
Drops below altitude 10° 21:05:48 10° 65° (ENE) 1,816 6.1 -15.2°
Sets 21:08:07 0° 58° (ENE) 2,711 7.1 -15.5°
